Regional Weather Roundup
Issued by NWS Jackson, KY

Home | Current Version | Previous Version | Text Only | Print | Product List | Glossary On
Versions: 1 2 3 4 5 6 7 8 9 10 11 12 13 14 15 16 17 18 19 20 21 22 23 24 25 26 27 28 29 30 31 32 33 34 35 36 37 38 39 40 41 42 43 44 45 46 47 48 49 50
000
ASUS43 KJKL 202311
RWRJKL

EAST KENTUCKY HOURLY WEATHER ROUNDUP
NATIONAL WEATHER SERVICE JACKSON KY
700 PM EDT SAT SEP 20 2014

NOTE: "FAIR" INDICATES FEW OR NO CLOUDS BELOW 12,000 FEET WITH
NO SIGNIFICANT WEATHER AND/OR OBSTRUCTIONS TO VISIBILITY.

* THESE REPORTS ARE NOT UNDER NWS QUALITY CONTROL AND MAY NOT
  REPORT WEATHER SUCH AS PRECIPITATION AND FOG.

KYZ079-080-083-085-087-088-110-112-115-119-120-210000
...EASTERN KENTUCKY...

CITY           SKY/WX    TMP DP  RH WIND       PRES   REMARKS
JACKSON        CLEAR     75  64  68 CALM      30.03F
LONDON         CLEAR     80  61  52 SW6       30.03F
SOMERSET*      CLEAR     77  61  57 W3        30.02F
MONTICELLO*    CLEAR     80  66  62 SW5       30.03F
MIDDLESBORO*   CLEAR     75  65  70 CALM      30.05S
HARLAN APT*    CLEAR     72  63  73 MISG      30.06S
HAZARD APT*    CLEAR     77  64  65 SW3       30.02
BLACK MTN*       N/A     63  57  82 SW5         N/A
PIKEVILLE APT* CLOUDY    77  63  61 CALM      30.03F
BIG SANDY*     CLEAR     77  65  67 CALM      30.02F
MOREHEAD APT*  CLEAR     77  64  65 S6        30.01F
$$

KYZ035-036-041-042-044-050-067-078-099-210000
...CENTRAL KENTUCKY...

CITY           SKY/WX    TMP DP  RH WIND       PRES   REMARKS
MT STERLING*   CLEAR     77  64  65 SW3       30.00F
FLEMING/MASON* CLEAR     77  64  65 SW6       29.98F
DANVILLE*      CLEAR     77  64  65 SW6       30.01F
RICHMOND*      CLEAR     79  63  57 S6        29.99F
LEXINGTON      CLEAR     79  63  57 SW9       29.98F
FRANKFORT      CLEAR     78  64  61 SW7       29.95F
$$

KYZ091>093-OHZ055-061-077-WVZ005-015-034-035-042-210000
...SOUTHERN OHIO/WEST VIRGINIA...

CITY           SKY/WX    TMP DP  RH WIND       PRES   REMARKS
COVINGTON      PTCLDY    77  63  61 SW6       29.94F
COLUMBUS       PTCLDY    81  59  47 S13       29.91F
DAYTON         MOCLDY    78  63  59 SW15G25   29.93R
WILMINGTON     PTCLDY    76  62  62 SW9       29.93F
HUNTINGTON     CLEAR     76  65  68 S3        29.98F
CHARLESTON     PTCLDY    77  65  66 CALM      30.00F
PINEVILLE*     CLEAR     69  67  94 MISG      30.11S
BECKLEY        PTCLDY    70  57  63 SE5       30.10F
BLUEFIELD      CLEAR     70  55  59 SE3       30.13F
$$

VAZ002-007-008-TNZ017-027-036-066-071-210000
...SOUTHWEST VIRGINIA/EAST TENNESSEE...

CITY           SKY/WX    TMP DP  RH WIND       PRES   REMARKS
WISE*          CLEAR     72  55  56 SW3       30.12F
JONESVILLE*    CLEAR     79  57  47 CALM      30.07S
ABINGDON*      CLEAR     76  59  55 CALM      30.08F
BRISTOL        PTCLDY    81  49  32 CALM      30.05F
KNOXVILLE      PTCLDY    82  55  39 NE3       30.02F
OAK RIDGE      CLEAR     82  60  47 NW3       30.04F
CROSSVILLE     CLEAR     76  61  59 SW3       30.08S
NASHVILLE      MOCLDY    84  63  49 W6        29.99F
$$

...KEY TO REMARKS...
VSB - VISIBILITY IN MILES
WCI - WIND CHILL INDEX
HX  - HEAT INDEX

$$



USA.gov is the U.S. government's official web portal to all federal, state and local government web resources and services.